Wind_Speed
14 13 13 10 22 26 31 33 34 36 35 33 31 31 32 33 34 34 35 34 34 34 34 33 33 29 31 29 28 27 26 25 24 24 23 23 24 24 24 26 27 26 26
13 14 13 15 16 29 25 31 32 34 35 37 37 36 36 35 35 35 35 36 36 35 36 36 35 34 34 32 31 30 29 28 28 26 26 25 25 27 28 29 29 28 28
15 15 19 19 17 17 27 28 36 30 34 39 40 41 40 39 38 38 38 38 38 37 38 38 37 38 37 36 34 33 32 32 31 30 28 28 29 30 31 31 31 31 30
12 14 16 22 20 19 28 27 30 30 35 49 42 44 47 42 42 40 40 39 39 40 41 40 40 41 40 39 39 38 37 37 37 36 36 37 34 31 34 35 33 33 33
9 11 14 18 23 26 25 26 23 21 29 25 23 29 41 38 36 41 45 46 47 48 48 45 43 43 40 43 43 43 41 44 43 42 45 42 39 38 37 35 35 35 35
11 11 12 12 15 21 26 23 21 20 15 19 23 31 27 23 27 22 29 32 39 40 41 43 42 48 48 45 44 48 48 49 50 50 50 44 49 42 39 40 39 39 38
7 10 11 11 12 13 16 22 18 17 25 26 21 20 25 19 22 18 19 24 22 25 32 42 31 35 43 45 44 56 59 55 55 58 57 52 50 49 48 47 46 45 43
7 7 8 10 10 12 15 19 20 22 24 22 24 24 24 27 21 15 21 23 25 28 22 22 22 28 30 30 32 41 41 39 42 42 52 53 50 48 47 51 49 49 49
11 10 10 8 11 10 12 15 19 22 23 22 24 24 24 23 22 22 25 29 25 25 25 24 24 27 33 31 33 31 34 40 42 47 52 49 55 51 52 50 50 49 50
14 14 13 13 12 14 14 14 14 15 18 23 27 26 24 24 24 24 24 29 30 30 27 23 26 27 28 27 28 31 32 25 23 30 35 44 45 47 48 49 48 47 46
19 16 15 15 17 16 17 18 17 16 16 17 18 20 24 24 27 30 29 34 31 33 32 33 28 28 33 32 36 31 27 25 24 27 33 27 27 27 33 36 37 38 37
20 19 18 18 18 18 18 19 19 19 19 18 19 19 20 21 20 23 28 28 28 29 29 29 30 33 33 29 28 27 30 31 33 34 37 37 36 32 32 30 32 32 33
20 20 20 20 19 20 19 18 19 20 20 21 21 22 22 22 22 23 25 28 24 22 28 27 28 30 27 31 29 32 34 32 30 28 28 29 30 30 31 32 31 30 28
20 23 25 25 24 23 21 20 20 21 22 23 24 24 25 25 25 25 26 28 29 33 31 28 28 32 30 28 32 30 37 29 26 23 23 22 23 26 28 27 28 27 28
23 23 24 25 24 23 22 21 22 23 23 24 25 24 24 22 22 22 22 21 23 25 28 35 35 33 32 27 30 29 33 29 23 23 25 22 23 23 23 25 27 29 29
21 21 19 20 20 19 18 17 16 16 15 16 17 15 17 18 18 20 21 21 22 26 30 31 29 26 25 26 28 28 24 22 26 29 30 24 26 29 28 29 29 29 29
20 18 17 16 16 14 13 12 11 10 10 10 11 14 17 16 16 17 19 18 18 21 22 21 25 25 27 19 17 18 21 24 24 25 28 32 30 27 26 26 27 28 28
21 19 15 14 13 13 12 12 12 13 13 13 14 15 17 18 18 19 21 22 23 22 20 20 19 18 19 21 22 23 24 28 30 27 25 29 29 28 27 27 27 28 29
21 19 18 16 15 15 15 16 16 17 17 17 18 20 20 21 21 20 21 20 21 21 21 21 21 20 19 20 20 20 20 21 22 22 23 24 24 25 25 26 26 27 28
19 19 19 17 17 17 16 15 14 13 12 12 12 12 12 12 12 12 12 12 14 14 15 16 17 18 19 18 18 19 19 19 20 21 22 23 24 25 25 26 26 26 27
19 17 16 16 16 14 12 11 11 11 10 10 10 10 9 10 10 9 9 8 8 9 10 11 11 12 13 14 15 15 16 17 18 19 20 21 23 24 25 25 26 26 27
16 15 14 14 13 12 11 11 10 10 9 9 9 9 9 9 9 10 10 10 11 12 12 13 14 15 16 17 17 18 20 20 21 22 23 24 25 26 27 27 28 29 30
10 11 12 12 12 13 12 12 12 12 12 13 13 13 13 14 14 15 15 16 17 18 18 19 20 21 22 23 24 25 26 27 28 28 29 30 31 32 32 33 33 33 33
12 13 13 14 15 15 15 15 15 16 16 17 17 18 18 19 20 21 21 23 23 25 26 26 27 29 29 30 31 31 32 32 33 33 34 34 34 34 34 34 34 34 34
16 16 17 18 18 18 18 19 19 20 21 21 22 23 24 25 26 27 27 28 30 31 32 33 33 34 34 35 35 36 36 36 36 36 36 36 35 34 34 33 33 33 33
21 21 22 22 23 23 24 24 25 25 26 27 28 29 29 30 31 31 32 33 34 35 35 35 35 35 35 35 36 36 36 35 35 35 35 34 33 33 33 33 34 34 33
Wind_Direction
249 217 220 213 217 203 188 192 186 187 188 193 197 202 206 211 215 216 215 217 219 220 223 226 229 232 237 240 241 246 250 258 264 264 263 261 263 265 266 265 266 268 268
249 240 216 244 217 207 197 210 206 203 199 197 202 204 210 213 217 220 221 221 222 223 226 228 231 234 238 242 245 248 252 258 263 264 262 262 261 261 263 264 267 268 269
245 241 223 217 235 256 213 224 213 214 211 208 211 212 213 217 220 224 225 226 227 229 230 231 232 235 238 241 246 248 253 257 260 261 260 262 268 264 262 262 264 265 267
245 241 236 225 228 217 239 205 214 223 223 226 217 222 223 221 228 231 229 230 231 233 236 236 237 239 242 243 246 248 251 255 259 259 261 265 266 265 263 261 262 265 265
233 237 243 242 233 232 249 246 228 210 211 202 223 223 225 217 226 231 230 231 231 231 233 236 237 240 242 246 248 250 249 255 253 260 259 262 257 270 269 262 258 259 261
219 223 228 241 251 238 236 244 228 242 251 232 236 225 195 204 204 211 215 221 230 231 240 246 242 244 247 247 249 252 253 255 257 266 258 264 258 258 257 258 256 255 258
239 232 222 232 242 239 225 235 235 235 237 231 249 237 257 281 250 261 256 251 261 248 242 244 242 249 252 247 254 254 253 255 255 260 263 263 270 263 257 252 253 252 253
225 247 253 230 226 224 232 230 230 227 238 238 238 241 236 242 261 264 236 267 254 266 260 256 263 268 274 264 252 244 252 259 264 266 265 267 263 261 260 258 252 253 256
223 231 245 246 229 229 221 225 229 230 234 238 239 239 241 242 238 247 245 246 259 269 265 261 259 254 256 256 264 266 261 266 265 263 266 263 257 257 260 257 259 256 263
225 232 235 241 239 228 229 229 226 229 233 233 235 237 239 242 245 248 248 246 248 255 249 251 262 262 257 244 254 255 252 251 257 261 265 262 255 255 254 257 257 262 265
221 236 241 241 240 237 231 236 241 234 225 232 232 237 241 246 248 252 253 254 255 260 256 253 251 259 267 261 259 258 247 250 261 262 263 256 265 274 268 264 264 265 267
220 233 241 240 240 238 232 231 235 238 244 242 240 243 243 249 245 250 249 255 260 252 262 256 252 255 266 263 257 251 267 268 266 265 261 260 265 269 267 268 270 269 267
222 228 240 246 243 240 238 234 237 240 243 247 249 248 253 249 249 250 241 250 251 261 256 262 261 264 268 254 264 260 268 264 263 255 254 255 260 262 264 263 260 257 254
233 231 236 242 242 240 239 242 245 246 247 249 248 247 248 253 253 254 252 252 251 249 256 260 257 263 266 273 254 267 262 254 254 262 263 264 264 263 263 258 258 259 262
230 232 232 233 234 235 241 245 247 249 249 249 250 250 248 244 245 247 253 256 259 261 255 255 262 263 265 271 272 255 270 252 255 265 262 260 263 264 265 265 266 261 260
217 219 217 222 226 230 235 241 249 252 252 254 248 243 252 258 253 253 257 260 258 258 258 261 258 255 262 262 264 258 261 262 260 261 262 261 273 273 269 267 262 260 263
193 196 191 196 208 213 219 228 233 238 244 246 245 243 242 243 250 256 252 252 260 274 267 263 257 259 256 250 237 244 257 259 253 256 252 268 269 263 269 265 263 265 268
183 194 198 199 201 206 216 230 239 246 250 249 249 251 251 250 252 255 257 260 265 267 264 259 257 256 256 256 257 262 258 254 257 259 257 258 265 268 265 265 266 266 265
192 196 203 213 223 231 239 248 253 254 253 250 251 251 253 256 263 266 266 264 265 264 265 265 265 267 269 272 271 268 265 263 263 264 265 264 264 265 267 267 268 269 267
204 214 213 223 233 242 242 238 235 232 233 236 239 243 246 249 253 255 257 258 260 262 264 266 269 271 272 273 274 275 274 271 272 273 272 272 273 274 275 275 273 271 271
199 209 215 217 219 222 222 223 224 221 218 218 221 225 230 235 239 245 250 253 258 261 263 266 267 269 271 274 275 274 274 275 274 272 271 272 272 271 271 270 270 271 271
178 183 191 199 201 204 209 213 216 221 222 222 223 226 231 235 241 247 252 257 261 266 269 272 275 276 277 277 278 278 278 277 276 276 274 273 273 273 273 272 271 269 268
185 196 198 204 208 211 213 217 222 227 235 240 242 246 251 255 258 261 264 266 269 271 273 275 277 278 279 280 280 279 279 279 278 277 276 276 275 274 273 272 270 269 268
213 219 223 223 226 227 230 234 238 242 246 250 254 256 258 261 263 266 270 273 276 278 279 280 281 281 281 281 280 279 278 278 277 277 276 275 275 274 274 273 272 271 270
232 234 237 239 240 242 245 246 248 252 256 259 263 266 269 271 274 276 277 279 279 279 280 281 281 280 280 279 278 277 277 277 277 276 276 276 276 276 275 274 273 272 271
247 247 248 250 250 251 252 254 255 258 261 264 266 269 271 273 274 277 279 280 280 281 281 281 281 281 281 281 280 279 278 278 278 278 277 277 276 274 273 272 271 271 270
Height
3009 3010 3011 3013 3015 3021 3028 3036 3041 3047 3054 3061 3067 3073 3079 3085 3090 3095 3100 3105 3109 3113 3117 3121 3126 3127 3131 3133 3135 3138 3141 3142 3144 3145 3146 3147 3148 3149 3148 3148 3148 3149 3149
3006 3008 3011 3013 3016 3020 3027 3031 3035 3045 3049 3055 3061 3066 3073 3078 3084 3089 3095 3099 3102 3105 3110 3113 3118 3120 3123 3125 3128 3131 3134 3135 3137 3138 3138 3140 3140 3141 3141 3141 3142 3142 3142
3005 3007 3009 3013 3015 3017 3021 3026 3033 3038 3043 3050 3055 3061 3066 3071 3076 3082 3086 3091 3095 3099 3103 3106 3110 3112 3115 3119 3120 3123 3126 3127 3128 3130 3131 3132 3133 3133 3133 3133 3134 3134 3135
3004 3005 3006 3010 3013 3016 3019 3022 3028 3034 3039 3044 3049 3055 3061 3065 3069 3074 3078 3082 3087 3091 3094 3098 3102 3104 3108 3110 3112 3114 3118 3118 3119 3120 3122 3123 3125 3126 3124 3125 3126 3127 3126
3003 3004 3005 3007 3011 3014 3015 3018 3021 3027 3031 3034 3042 3044 3050 3054 3058 3063 3068 3073 3077 3081 3084 3089 3092 3095 3098 3100 3103 3105 3107 3109 3110 3110 3112 3114 3115 3118 3118 3118 3116 3116 3116
3001 3004 3005 3006 3006 3010 3014 3016 3018 3024 3027 3029 3034 3037 3040 3045 3049 3053 3057 3061 3065 3071 3075 3079 3080 3085 3089 3090 3092 3095 3097 3098 3099 3101 3102 3103 3106 3107 3107 3107 3106 3106 3105
2998 3000 3003 3005 3006 3007 3011 3014 3014 3019 3025 3029 3031 3034 3037 3040 3044 3045 3049 3053 3057 3061 3065 3069 3070 3074 3077 3078 3080 3082 3085 3086 3087 3091 3089 3093 3093 3097 3095 3092 3094 3093 3094
2995 2997 2998 3001 3004 3007 3009 3011 3014 3017 3021 3025 3028 3032 3035 3038 3040 3041 3047 3049 3052 3054 3056 3058 3062 3064 3066 3068 3068 3068 3070 3074 3075 3077 3078 3080 3081 3082 3081 3082 3082 3081 3082
2992 2993 2995 2997 3000 3002 3006 3009 3012 3014 3018 3020 3024 3027 3030 3034 3035 3040 3040 3043 3046 3050 3051 3053 3054 3055 3059 3059 3058 3059 3060 3061 3065 3065 3067 3068 3069 3069 3069 3067 3069 3071 3071
2989 2991 2992 2995 2996 2999 3002 3005 3009 3011 3013 3016 3020 3022 3023 3027 3028 3031 3035 3037 3039 3043 3046 3048 3048 3049 3049 3049 3048 3049 3050 3052 3052 3053 3055 3056 3055 3056 3056 3055 3057 3058 3059
2985 2988 2990 2991 2993 2996 2998 3002 3004 3006 3009 3012 3014 3016 3019 3020 3021 3025 3028 3030 3033 3036 3037 3039 3040 3042 3041 3041 3041 3042 3042 3043 3043 3044 3046 3047 3048 3047 3047 3045 3046 3047 3049
2982 2985 2986 2989 2991 2993 2995 2998 3000 3002 3004 3007 3007 3009 3011 3014 3017 3020 3022 3024 3027 3029 3029 3032 3031 3033 3034 3032 3033 3036 3035 3035 3036 3036 3036 3038 3039 3040 3041 3038 3038 3038 3039
2977 2980 2983 2985 2987 2989 2992 2993 2995 2997 2999 3000 3002 3005 3006 3009 3011 3013 3015 3019 3020 3020 3022 3024 3024 3026 3026 3026 3026 3028 3027 3028 3028 3027 3027 3027 3030 3031 3031 3030 3028 3029 3029
2971 2974 2978 2981 2983 2986 2988 2989 2991 2993 2995 2996 2998 3000 3002 3003 3004 3006 3010 3010 3011 3014 3014 3017 3017 3018 3019 3018 3017 3020 3019 3021 3022 3021 3023 3021 3023 3025 3024 3022 3023 3023 3023
2966 2969 2973 2975 2977 2980 2982 2984 2986 2988 2990 2991 2993 2994 2995 2997 2999 3002 3004 3003 3004 3006 3008 3009 3010 3009 3009 3012 3010 3012 3014 3015 3014 3016 3018 3016 3017 3019 3018 3017 3018 3017 3016
2960 2964 2967 2969 2971 2974 2976 2978 2980 2982 2983 2985 2986 2989 2990 2992 2994 2996 2998 2999 2998 2999 3001 3002 3002 3003 3003 3003 3005 3005 3006 3008 3008 3008 3010 3010 3011 3012 3010 3010 3010 3010 3009
2959 2960 2962 2964 2967 2970 2972 2975 2977 2979 2980 2982 2984 2986 2987 2989 2990 2991 2992 2993 2993 2994 2995 2995 2995 2995 2995 2997 2997 2998 3001 3002 3001 3002 3002 3003 3003 3003 3002 3002 3003 3002 3001
2956 2955 2960 2962 2964 2967 2970 2972 2974 2976 2978 2979 2981 2983 2984 2984 2985 2986 2987 2988 2989 2989 2988 2988 2989 2990 2990 2991 2992 2994 2993 2994 2994 2994 2995 2995 2994 2994 2994 2994 2994 2993 2992
2951 2954 2959 2961 2963 2965 2967 2969 2970 2971 2973 2974 2976 2977 2979 2979 2979 2981 2982 2983 2984 2984 2984 2984 2985 2986 2986 2986 2987 2986 2986 2987 2987 2987 2987 2986 2986 2986 2986 2986 2985 2985 2984
2948 2954 2957 2959 2961 2962 2964 2965 2966 2968 2969 2970 2971 2973 2974 2975 2975 2977 2978 2979 2979 2979 2979 2979 2979 2980 2980 2980 2980 2980 2980 2980 2980 2980 2979 2979 2979 2979 2979 2978 2978 2977 2977
2947 2951 2953 2955 2956 2958 2959 2961 2963 2964 2966 2967 2968 2969 2970 2971 2971 2972 2973 2974 2974 2975 2975 2976 2975 2975 2976 2976 2976 2976 2975 2975 2974 2973 2973 2973 2973 2973 2972 2972 2971 2970 2969
2944 2947 2950 2952 2954 2955 2956 2957 2959 2961 2963 2965 2965 2967 2968 2968 2969 2970 2971 2971 2972 2972 2971 2971 2971 2971 2971 2971 2971 2970 2970 2969 2968 2968 2968 2968 2967 2966 2965 2964 2963 2962 2962
2945 2947 2949 2950 2952 2953 2954 2955 2957 2958 2960 2962 2962 2963 2964 2965 2965 2966 2967 2967 2967 2967 2966 2966 2966 2966 2965 2965 2964 2964 2963 2962 2961 2960 2959 2958 2957 2956 2955 2954 2953 2953 2952
2943 2945 2946 2947 2948 2949 2950 2952 2953 2955 2956 2957 2958 2959 2959 2960 2960 2961 2960 2960 2960 2959 2958 2958 2957 2957 2956 2955 2955 2954 2953 2952 2950 2949 2948 2947 2946 2945 2944 2943 2942 2941 2940
2939 2940 2941 2943 2943 2944 2945 2946 2947 2949 2950 2951 2951 2952 2952 2952 2952 2952 2952 2952 2951 2950 2949 2948 2948 2947 2946 2945 2943 2942 2941 2940 2939 2937 2936 2935 2934 2933 2932 2931 2930 2929 2928
2933 2934 2935 2936 2937 2938 2939 2940 2941 2941 2942 2943 2943 2944 2944 2943 2943 2942 2942 2941 2940 2939 2938 2937 2936 2935 2934 2932 2931 2930 2929 2928 2927 2926 2924 2924 2923 2922 2921 2920 2919 2918 2917